Location: Cowley
(49.5667°N, 114.0667°W)
Time: 11:21:05
(UTC+00:00)

Envisat - Pass Details

Date: 05 December 2021
Orbit: 764 x 766 km, 98.2° (Epoch: 23 January)

Event Time Altitude Azimuth Distance (km) Brightness Sun altitude
Rises 11:34:53 0° 25° (NNE) 3,246 6.6 -34.9°
Reaches altitude 10° 11:37:43 10° 40° (NE) 2,314 5.9 -34.4°
Maximum altitude 11:41:40 22° 91° (E) 1,618 5.3 -33.8°
Drops below altitude 10° 11:45:35 10° 142° (SE) 2,299 5.8 -33.2°
Sets 11:48:22 0° 157° (SSE) 3,219 6.5 -32.7°
